Location: Newark
(39.0622°N, 106.5590°E)
Time: 03:47:05
(UTC+00:00)

ISS - Visible Passes

Search period start: 22 January 2021 00:00
Search period end: 01 February 2021 00:00
Orbit: 418 x 421 km, 51.6° (Epoch: 22 January)

Date Brightness Start Highest point End Pass type
(mag) Time Alt. Az. Time Alt. Az. Time Alt. Az.
22 Jan -1.8 11:31:16 10° W 11:33:59 22° NNW 11:35:13 18° N visible
23 Jan -2.3 10:43:25 10° W 10:46:29 31° NNW 10:49:34 10° NE visible
24 Jan -1.3 11:34:42 10° NW 11:36:29 13° NNW 11:37:27 12° N visible
25 Jan -1.5 10:46:33 10° WNW 10:48:50 17° NNW 10:51:08 10° NNE visible
26 Jan -1.1 11:38:36 10° NNW 11:39:04 10° N 11:39:32 10° N visible
27 Jan -1.2 10:50:11 10° NNW 10:51:20 11° N 10:52:30 10° N visible
28 Jan -1.1 11:41:12 10° N 11:41:32 10° N 11:41:32 10° N visible
30 Jan -1.4 11:42:24 10° NNW 11:43:37 13° N 11:43:37 13° N visible
31 Jan -1.4 10:55:15 10° N 10:56:26 11° N 10:57:35 10° NNE visible
31 Jan -0.7 12:30:59 10° NW 12:31:13 11° NNW 12:31:13 11° NNW visible
